Total_Precipitation_Accumulation
1.63 1.85 2.05 2.26 2.49 2.67 2.81 3.03 3.27 3.59 3.82 4.18 4.49 4.69 4.84 4.98 5.00 5.01 5.04 5.03 5.04 5.14 5.19 4.97 4.94 4.85 4.72 4.52 4.45 4.31 4.08 3.82 3.82 3.70 3.23 2.63 2.27 2.20 2.10 2.15 2.39 2.43 2.30
1.61 1.97 2.31 2.76 2.98 3.07 3.11 3.32 3.64 3.95 4.11 4.48 4.98 5.41 5.58 5.63 5.63 5.61 5.76 5.82 5.83 5.95 5.97 5.94 5.72 5.56 5.30 4.82 4.46 4.31 4.08 3.71 3.83 3.85 3.77 3.06 2.57 2.10 1.70 1.81 1.88 1.98 2.19
1.86 2.11 2.51 2.84 2.98 3.06 3.17 3.34 3.79 4.22 4.65 5.12 5.69 6.13 6.35 6.35 6.19 5.90 6.00 6.12 6.00 6.07 6.20 6.15 5.95 5.65 5.14 4.60 4.43 4.37 4.20 3.94 3.88 3.79 3.93 3.40 2.86 2.42 1.92 1.68 1.58 1.70 1.81
1.81 2.11 2.36 2.67 2.82 2.93 3.15 3.36 3.76 4.40 4.87 5.23 5.88 6.49 6.75 6.93 6.99 6.77 6.46 6.24 5.97 5.84 5.77 5.60 5.19 4.82 4.48 4.20 4.07 4.12 4.00 3.98 3.80 3.70 3.41 3.18 2.90 2.63 2.21 1.78 1.56 1.60 1.63
1.60 1.94 2.09 2.38 2.71 2.81 2.90 3.15 3.71 4.30 4.96 5.56 6.08 6.63 7.07 7.30 7.25 6.82 6.37 5.85 5.46 5.02 4.64 4.33 4.11 4.03 3.85 3.65 3.53 3.53 3.45 3.30 3.22 3.19 3.14 3.08 2.84 2.50 2.28 1.98 1.76 1.75 1.60
1.45 1.60 1.77 2.01 2.36 2.46 2.66 2.97 3.43 4.14 4.83 5.41 5.97 6.43 6.81 6.87 6.56 6.01 5.47 5.12 4.74 4.25 3.76 3.50 3.30 3.18 3.02 2.82 2.71 2.70 2.72 2.80 2.87 2.94 2.90 2.83 2.79 2.61 2.53 2.32 2.06 1.96 1.85
1.33 1.52 1.62 1.79 2.02 2.19 2.45 2.80 3.35 4.00 4.42 4.88 5.37 5.69 5.90 5.98 5.89 5.53 5.06 4.72 4.30 3.86 3.40 2.96 2.75 2.52 2.32 2.21 2.20 2.19 2.18 2.29 2.41 2.52 2.58 2.56 2.48 2.45 2.52 2.59 2.34 2.09 1.95
1.43 1.63 1.76 1.89 2.03 2.15 2.32 2.68 3.12 3.57 3.80 4.01 4.41 4.71 4.82 4.87 4.76 4.50 4.12 3.82 3.53 3.25 2.94 2.50 2.15 1.93 1.79 1.69 1.78 1.81 1.84 1.90 2.00 2.09 2.28 2.28 2.20 2.30 2.40 2.51 2.58 2.45 2.13
1.43 1.63 1.80 1.91 2.01 2.03 2.20 2.39 2.65 2.88 3.10 3.27 3.47 3.62 3.63 3.55 3.47 3.24 2.97 2.77 2.57 2.31 2.16 1.97 1.76 1.63 1.59 1.59 1.62 1.61 1.60 1.69 1.79 1.86 2.01 2.12 2.09 2.15 2.22 2.36 2.47 2.52 2.35
1.43 1.59 1.67 1.74 1.78 1.72 1.82 1.95 2.18 2.31 2.47 2.57 2.61 2.54 2.54 2.50 2.36 2.19 2.09 1.94 1.74 1.61 1.58 1.55 1.54 1.48 1.42 1.47 1.55 1.49 1.47 1.58 1.60 1.60 1.71 1.81 1.88 1.98 2.06 2.19 2.28 2.33 2.29
1.34 1.38 1.43 1.47 1.49 1.42 1.43 1.54 1.71 1.92 2.03 2.03 2.06 2.03 1.96 1.80 1.69 1.58 1.53 1.45 1.35 1.33 1.33 1.35 1.36 1.35 1.33 1.34 1.36 1.32 1.33 1.39 1.54 1.63 1.68 1.73 1.79 1.87 1.86 1.87 1.92 2.04 2.17
1.34 1.27 1.27 1.27 1.26 1.22 1.20 1.27 1.35 1.45 1.49 1.56 1.58 1.58 1.51 1.42 1.36 1.30 1.26 1.27 1.24 1.21 1.24 1.24 1.24 1.28 1.34 1.37 1.31 1.22 1.21 1.30 1.42 1.52 1.60 1.60 1.58 1.65 1.73 1.79 1.76 1.80 1.92
1.40 1.35 1.29 1.21 1.22 1.31 1.31 1.17 1.17 1.23 1.23 1.26 1.27 1.28 1.32 1.30 1.26 1.28 1.31 1.30 1.26 1.24 1.20 1.15 1.17 1.23 1.28 1.28 1.24 1.19 1.18 1.20 1.28 1.34 1.36 1.37 1.41 1.38 1.41 1.48 1.55 1.55 1.57
1.39 1.42 1.46 1.40 1.31 1.34 1.45 1.32 1.18 1.18 1.24 1.21 1.17 1.10 1.09 1.14 1.17 1.17 1.19 1.16 1.15 1.19 1.22 1.17 1.12 1.11 1.05 0.98 0.94 0.95 1.00 1.01 1.03 1.07 1.09 1.15 1.24 1.26 1.30 1.28 1.33 1.36 1.48
1.53 1.51 1.47 1.46 1.38 1.33 1.40 1.37 1.27 1.19 1.39 1.36 1.30 1.19 1.08 1.10 1.15 1.13 1.08 1.04 1.01 0.97 1.00 1.02 0.97 0.89 0.77 0.67 0.66 0.72 0.76 0.82 0.84 0.87 0.85 0.85 1.00 1.10 1.08 0.99 1.10 1.25 1.40
1.71 1.69 1.62 1.62 1.63 1.54 1.49 1.43 1.40 1.36 1.44 1.50 1.53 1.52 1.40 1.34 1.33 1.23 1.09 1.08 1.06 0.98 0.91 0.85 0.84 0.77 0.61 0.61 0.58 0.64 0.76 0.84 0.83 0.85 0.85 0.78 0.82 0.86 0.83 0.81 0.94 1.13 1.18
1.97 1.94 1.88 1.82 1.82 1.80 1.71 1.62 1.55 1.51 1.50 1.54 1.56 1.53 1.50 1.47 1.43 1.26 1.13 1.13 1.10 1.07 1.03 0.92 0.87 0.85 0.77 0.64 0.52 0.57 0.72 0.84 0.85 0.85 0.83 0.72 0.68 0.75 0.76 0.77 0.80 0.88 0.90
1.93 1.97 2.03 1.97 1.93 1.82 1.72 1.63 1.57 1.58 1.62 1.60 1.55 1.50 1.38 1.36 1.30 1.21 1.19 1.16 1.10 1.07 1.02 0.95 0.88 0.80 0.64 0.49 0.43 0.45 0.60 0.78 0.82 0.81 0.81 0.83 0.76 0.72 0.72 0.71 0.76 0.84 0.89
2.05 2.02 2.00 1.91 1.86 1.82 1.73 1.65 1.64 1.64 1.65 1.60 1.47 1.36 1.26 1.25 1.18 1.15 1.09 1.03 0.98 0.96 0.90 0.81 0.77 0.76 0.62 0.41 0.35 0.41 0.58 0.76 0.76 0.72 0.66 0.71 0.73 0.71 0.67 0.72 0.86 0.93 0.98
1.86 1.77 1.63 1.55 1.67 1.75 1.71 1.63 1.58 1.58 1.56 1.36 1.16 1.06 1.06 1.06 1.01 0.96 0.92 0.89 0.87 0.86 0.79 0.69 0.72 0.73 0.69 0.52 0.43 0.46 0.57 0.72 0.71 0.71 0.66 0.61 0.60 0.60 0.62 0.71 0.85 0.94 0.95
1.37 1.30 1.25 1.30 1.41 1.47 1.44 1.43 1.36 1.35 1.31 1.20 1.07 0.99 0.95 0.89 0.86 0.85 0.86 0.82 0.78 0.81 0.81 0.80 0.75 0.69 0.60 0.48 0.40 0.41 0.46 0.60 0.65 0.66 0.70 0.63 0.52 0.49 0.52 0.65 0.72 0.80 0.80
1.04 1.00 1.05 1.12 1.16 1.11 1.11 1.21 1.21 1.12 1.05 1.09 1.05 1.03 0.91 0.76 0.76 0.89 0.87 0.83 0.84 0.86 0.83 0.80 0.74 0.62 0.53 0.41 0.34 0.35 0.40 0.47 0.61 0.70 0.71 0.63 0.52 0.48 0.51 0.58 0.65 0.68 0.79
0.85 0.86 0.86 0.92 1.02 1.04 1.05 1.10 1.08 0.97 0.97 1.05 1.04 0.94 0.81 0.82 0.81 0.86 0.86 0.80 0.79 0.74 0.67 0.65 0.65 0.59 0.51 0.43 0.34 0.36 0.41 0.47 0.54 0.61 0.58 0.54 0.52 0.52 0.63 0.66 0.67 0.77 1.00
0.72 0.79 0.81 0.80 0.87 0.89 0.91 0.98 0.90 0.89 1.04 1.14 1.08 0.94 0.83 0.77 0.75 0.75 0.69 0.64 0.64 0.64 0.61 0.58 0.56 0.53 0.52 0.47 0.44 0.45 0.44 0.45 0.50 0.54 0.55 0.60 0.64 0.67 0.76 0.86 0.95 0.99 1.06
0.73 0.77 0.82 0.82 0.77 0.74 0.78 0.76 0.77 0.91 1.14 1.11 0.99 0.87 0.73 0.66 0.64 0.59 0.54 0.50 0.47 0.44 0.45 0.44 0.43 0.46 0.47 0.41 0.40 0.40 0.40 0.41 0.42 0.44 0.61 0.83 0.88 0.95 1.02 1.04 1.09 1.14 1.08
0.65 0.75 0.74 0.70 0.72 0.77 0.78 0.72 0.72 0.83 1.03 1.04 0.85 0.70 0.61 0.54 0.46 0.43 0.43 0.38 0.34 0.31 0.28 0.29 0.29 0.30 0.29 0.27 0.27 0.31 0.33 0.36 0.39 0.45 0.70 0.83 0.89 0.96 0.99 0.99 1.02 1.08 1.11